"Pseudo-MPEC" for P22owBy

Created 2026 Jul 27 20:35:12 UT using Find_Orb

Click here for an explanation of pseudo-MPECs

 
 Astrometry: 
     P22owBy 0C2022 09 28.59106203 01 38.404-01 20 10.17   ~7RFK 23.08GVNEOCPF51
     P22owBy 0C2022 09 28.60014403 01 38.085-01 20 12.60   ~7RFK 22.95GVNEOCPF51
     P22owBy 0C2022 09 28.60929003 01 37.797-01 20 15.22   ~7RFK 22.58GVNEOCPF51
     P22owBy 0C2022 10 01.49291203 00 02.173-01 34 51.10   ~7RFK 22.54GVNEOCPF51
     P22owBy 0C2022 10 01.50628303 00 01.657-01 34 55.02   ~7RFK 22.69GVNEOCPF51
     P22owBy 0C2022 10 01.51983203 00 01.126-01 34 59.17   ~7RFK 22.96GVNEOCPF51
     P22owBy 0C2022 10 01.53327303 00 00.611-01 35 03.15   ~7RFK 22.77GVNEOCPF51
     P22owBy 0C2022 10 04.54165902 58 02.834-01 49 51.49   ~7RFK 23.15GVNEOCPF52
     P22owBy 0C2022 10 04.55259602 58 02.330-01 49 54.65   ~7RFK 23.32GVNEOCPF52
     P22owBy 0C2022 10 24.51392602 39 30.868-03 01 55.08   ~7RFK 22.45GVNEOCPF51
     P22owBy 0C2026 06 26.56665221 58 05.287-18 44 17.55   ~7QN5 21.86GVNEOCPF52
     P22owBy 0C2026 06 26.57490121 58 05.863-18 44 21.68   ~7QN5 22.15GVNEOCPF52
     P22owBy 0C2026 06 26.58319821 58 06.464-18 44 25.80   ~7QN5 22.57GVNEOCPF52
     P22owBy*0C2026 07 19.54475622 18 36.102-23 08 17.11   ~7NF5 21.20wXNEOCPF52
     P22owBy 0C2026 07 19.55631422 18 36.389-23 08 26.77   ~7NF5 21.43wXNEOCPF52
     P22owBy 0C2026 07 19.56791122 18 36.687-23 08 36.89   ~7NF5 21.53wXNEOCPF52
     P22owBy 0C2026 07 20.53648922 19 05.154-23 22 28.49   ~7QN5 21.22GVNEOCPF51
     P22owBy 0C2026 07 20.54761322 19 05.411-23 22 38.16   ~7QN5 21.65GVNEOCPF51
     P22owBy 0C2026 07 20.55888822 19 05.676-23 22 47.88   ~7QN5 22.17GVNEOCPF51
     P22owBy 0C2026 07 20.57000622 19 05.923-23 22 57.29   ~7QN5 21.19GVNEOCPF51
     P22owBy 3C2026 07 21.55972122 19 32.760-23 37 16.14   ~7NF5 21.07GVNEOCPT14
     P22owBy 3C2026 07 21.56069622 19 32.780-23 37 17.00   ~7NF5 21.08GVNEOCPT14
     P22owBy 3C2026 07 21.56166722 19 32.800-23 37 17.81   ~7NF5 21.06GVNEOCPT14
     P22owBy 1C2026 07 25.45109022 20 58.588-24 34 42.03   ~7PD5 21.08GVNEOCPT12
     P22owBy 1C2026 07 25.45228522 20 58.606-24 34 43.12   ~7PD5 21.04GVNEOCPT12
     P22owBy 1C2026 07 25.45348222 20 58.620-24 34 44.20   ~7PD5 21.16GVNEOCPT12

Station data:
(F51) Pan-STARRS 1, Haleakala  (N20.707234 W156.255910)  US/Hawaii.
   Observers J. Herman, T. Lowe, P. Minguez, A. Schultz, I. Smith, J. Bulger,
   K. Chambers. Measurers K. Chambers, T. de Boer, J. Fairlamb, H. Gao, M.
   Huber, C.-C. Lin, E. Magnier, Y. Ramanjooloo, R. Wainscoat, R. Weryk, S.
   Chastel. 1.8-m Ritchey-Chrétien + CCD.
(F52) Pan-STARRS 2, Haleakala  (N20.707382 W156.255910)  US/Hawaii.
   Observers J. Herman, T. Lowe, P. Minguez, A. Schultz, I. Smith, J. Bulger,
   K. Chambers. Measurers K. Chambers, T. de Boer, J. Fairlamb, H. Gao, M.
   Huber, C.-C. Lin, E. Magnier, Y. Ramanjooloo, R. Wainscoat, R. Weryk, S.
   Chastel. 1.8-m Ritchey-Chrétien + CCD.
(T12) Mauna Kea-UH/Tholen NEO Follow-Up (2.24-m)  (N19.822991 W155.469434)
   US/Hawaii.  Observer R. Weryk. 2.24-m f/10.1 University of Hawaii
   reflector.
(T14) Mauna Kea-UH/Tholen NEO Follow-Up (CFHT)  (N19.825252 W155.468876)
   US/Hawaii.  Observer R. Weryk. 3.6-m Canada-France-Hawaii Telescope.

Orbital elements:  P22owBy
   Perihelion 2026 Jul 22.504974 +/- 0.00116 TT = 12:07:09.7 (JD 2461244.004974)
Epoch 2026 Jul 25.0 TT = JDT 2461246.5   Earth MOID: 0.6501      AutoNEOCP
M   0.578615832 +/- 0.00026         (J2000 ecliptic)
n   0.231907718 +/- 1.18e-7         Peri.  210.451485 +/- 0.0007
a   2.623770912 +/- 8.91e-7         Node   100.832412 +/- 0.00010
e   0.36890305 +/- 7.78e-7          Incl.   10.443652 +/- 0.000031
P   4.25000                H 20.27  G  0.15   U  2.2
q 1.655853818 +/- 1.98e-6    Q 3.591688006 +/- 2.62e-6
From 26 observations 2022 Sept. 28-2026 July 25; mean residual 0".09
Residuals in arcseconds: 
220928 F51  .12+  .32-    221024 F51  .15+  .11+    260720 F51  .10+  .04-    
220928 F51  .17-  .03+    260626 F52  .07-  .02+    260720 F51  .01-  .09+    
220928 F51  .04+  .20+    260626 F52  .10-  .02+    260721 T14  .00   .00     
221001 F51  .15-  .08-    260626 F52  .18+  .05+    260721 T14  .00   .01-    
221001 F51  .05-  .02+    260719 F52  .01-  .03+    260721 T14  .01-  .02+    
221001 F51  .07-  .06-    260719 F52  .04-  .21+    260725 T12  .02-  .03-    
221001 F51  .10+  .00     260719 F52  .06+  .05-    260725 T12  .02+  .03-    
221004 F52  .06+  .04+    260720 F51  .03-  .06+    260725 T12  .00   .03-    
221004 F52  .14-  .04+    260720 F51  .00   .02-    

Ephemerides (geocentric):
Date (UTC) HH   RA             Dec           delta  r     elong  mag " sig PA
---- --------  ------------   ------------  ------ ------ -----  --- --------
2026 07 27 21  22 21 35.313   -25 10 58.11  .68656 1.6564 152.9 21.4 .023 148
2026 07 27 22  22 21 35.844   -25 11 35.81  .68647 1.6564 152.9 21.4 .023 148
2026 07 27 23  22 21 36.372   -25 12 13.51  .68638 1.6564 153.0 21.4 .023 148
2026 07 28 00  22 21 36.897   -25 12 51.21  .68629 1.6565 153.0 21.4 .023 148
2026 07 28 01  22 21 37.418   -25 13 28.92  .68620 1.6565 153.0 21.4 .023 148
2026 07 28 02  22 21 37.935   -25 14 06.63  .68611 1.6565 153.1 21.4 .023 148
2026 07 28 03  22 21 38.449   -25 14 44.34  .68601 1.6565 153.1 21.4 .023 148
2026 07 28 04  22 21 38.959   -25 15 22.05  .68592 1.6565 153.1 21.4 .023 148
2026 07 28 05  22 21 39.466   -25 15 59.77  .68583 1.6565 153.1 21.4 .024 148
2026 07 28 06  22 21 39.969   -25 16 37.49  .68574 1.6565 153.2 21.4 .024 148
2026 07 28 07  22 21 40.469   -25 17 15.22  .68565 1.6565 153.2 21.4 .024 148
2026 07 28 08  22 21 40.965   -25 17 52.94  .68556 1.6565 153.2 21.4 .024 149
2026 07 28 09  22 21 41.457   -25 18 30.67  .68547 1.6565 153.3 21.4 .024 149
2026 07 28 10  22 21 41.946   -25 19 08.40  .68539 1.6565 153.3 21.4 .024 149
2026 07 28 11  22 21 42.432   -25 19 46.13  .68530 1.6566 153.3 21.4 .024 149
2026 07 28 12  22 21 42.914   -25 20 23.87  .68521 1.6566 153.4 21.4 .024 149
2026 07 28 13  22 21 43.392   -25 21 01.61  .68512 1.6566 153.4 21.4 .024 149
2026 07 28 14  22 21 43.867   -25 21 39.35  .68503 1.6566 153.4 21.4 .025 149
2026 07 28 15  22 21 44.338   -25 22 17.09  .68495 1.6566 153.4 21.4 .025 149
2026 07 28 16  22 21 44.806   -25 22 54.84  .68486 1.6566 153.5 21.4 .025 149
2026 07 28 17  22 21 45.270   -25 23 32.58  .68477 1.6566 153.5 21.4 .025 149
2026 07 28 18  22 21 45.731   -25 24 10.33  .68468 1.6566 153.5 21.4 .025 149
2026 07 28 19  22 21 46.188   -25 24 48.08  .68460 1.6566 153.6 21.4 .025 149
2026 07 28 20  22 21 46.642   -25 25 25.83  .68451 1.6566 153.6 21.4 .025 149
2026 07 28 21  22 21 47.092   -25 26 03.59  .68443 1.6567 153.6 21.4 .025 149
2026 07 28 22  22 21 47.538   -25 26 41.34  .68434 1.6567 153.7 21.4 .025 149
2026 07 28 23  22 21 47.981   -25 27 19.10  .68426 1.6567 153.7 21.4 .025 149
2026 07 29 00  22 21 48.421   -25 27 56.85  .68417 1.6567 153.7 21.4 .026 149
2026 07 29 01  22 21 48.857   -25 28 34.61  .68409 1.6567 153.7 21.4 .026 149
2026 07 29 02  22 21 49.289   -25 29 12.37  .68400 1.6567 153.8 21.4 .026 149
2026 07 29 03  22 21 49.718   -25 29 50.14  .68392 1.6567 153.8 21.4 .026 149
2026 07 29 04  22 21 50.144   -25 30 27.90  .68383 1.6567 153.8 21.4 .026 149
2026 07 29 05  22 21 50.566   -25 31 05.66  .68375 1.6567 153.9 21.4 .026 149
2026 07 29 06  22 21 50.984   -25 31 43.43  .68367 1.6568 153.9 21.4 .026 149
2026 07 29 07  22 21 51.399   -25 32 21.19  .68358 1.6568 153.9 21.4 .026 149
2026 07 29 08  22 21 51.811   -25 32 58.96  .68350 1.6568 154.0 21.4 .026 149
2026 07 29 09  22 21 52.218   -25 33 36.73  .68342 1.6568 154.0 21.4 .027 149
2026 07 29 10  22 21 52.623   -25 34 14.49  .68334 1.6568 154.0 21.4 .027 149
2026 07 29 11  22 21 53.024   -25 34 52.26  .68326 1.6568 154.0 21.4 .027 149
2026 07 29 12  22 21 53.421   -25 35 30.03  .68317 1.6568 154.1 21.4 .027 149
2026 07 29 13  22 21 53.815   -25 36 07.80  .68309 1.6568 154.1 21.4 .027 149
2026 07 29 14  22 21 54.205   -25 36 45.57  .68301 1.6568 154.1 21.4 .027 149
2026 07 29 15  22 21 54.592   -25 37 23.34  .68293 1.6569 154.2 21.4 .027 149
2026 07 29 16  22 21 54.976   -25 38 01.11  .68285 1.6569 154.2 21.4 .027 149
2026 07 29 17  22 21 55.356   -25 38 38.88  .68277 1.6569 154.2 21.4 .027 149
2026 07 29 18  22 21 55.732   -25 39 16.65  .68269 1.6569 154.3 21.4 .027 149
2026 07 29 19  22 21 56.105   -25 39 54.41  .68261 1.6569 154.3 21.4 .028 149
2026 07 29 20  22 21 56.474   -25 40 32.18  .68253 1.6569 154.3 21.4 .028 149